This is the latest recevied weather packets stored in our database for station/object RUSSARO. If no packets are shown the sender has not sent any weather packets the latest 10 day(s).
| Time | Temp. | Humidity | Pressure | Rain* | Wind** | Luminosity | Snow |
|---|---|---|---|---|---|---|---|
| 1778171249 | 8.33° C | 65% | 1017.2 hPa | 0 mm | - | - | - |
| 1778170049 | 8.89° C | 63% | 1017.2 hPa | 0 mm | - | - | - |
| 1778168848 | 9.44° C | 59% | 1017 hPa | 0 mm | - | - | - |
| 1778167648 | 9.44° C | 59% | 1017.1 hPa | 0 mm | - | - | - |
| 1778166450 | 10.56° C | 46% | 1017.1 hPa | 0 mm | - | - | - |
| 1778165249 | 11.11° C | 42% | 1017 hPa | 0 mm | - | - | - |
| 1778164050 | 11.11° C | 47% | 1016.9 hPa | 0 mm | - | - | - |
| 1778162848 | 10.56° C | 52% | 1016.9 hPa | 0 mm | - | - | - |
| 1778161649 | 10° C | 56% | 1016.9 hPa | 0 mm | - | - | - |
| 1778160448 | 10° C | 52% | 1016.8 hPa | 0 mm | - | - | - |
| 1778159249 | 10.56° C | 48% | 1016.7 hPa | 0 mm | - | - | - |
| 1778158048 | 9.44° C | 48% | 1016.7 hPa | 0 mm | - | - | - |
| 1778156847 | 10° C | 54% | 1016.6 hPa | 0 mm | - | - | - |
| 1778155649 | 9.44° C | 53% | 1016.6 hPa | 0 mm | - | - | - |
| 1778154448 | 8.89° C | 49% | 1016.6 hPa | 0 mm | - | - | - |
| 1778153247 | 9.44° C | 49% | 1016.6 hPa | 0 mm | - | - | - |
| 1778152047 | 9.44° C | 44% | 1016.5 hPa | 0 mm | - | - | - |
| 1778150847 | 10° C | 47% | 1016.4 hPa | 0 mm | - | - | - |
| 1778149647 | 10.56° C | 46% | 1016.3 hPa | 0 mm | - | - | - |
| 1778148447 | 8.89° C | 48% | 1016.2 hPa | 0 mm | - | - | - |
| 1778147247 | 7.78° C | 55% | 1016.1 hPa | 0 mm | - | - | - |
| 1778144847 | 8.33° C | 57% | 1016.1 hPa | 0 mm | - | - | - |
| 1778143647 | 8.33° C | 58% | 1016 hPa | 0 mm | - | - | - |
| 1778142447 | 7.78° C | 58% | 1016.1 hPa | 0 mm | - | - | - |
| 1778141247 | 7.78° C | 56% | 1016.1 hPa | 0 mm | - | - | - |
* Rain latest hour (hover to see other rain measurements)
** Current wind speed in m/s (hover to see current wind gust speed)